FW1737 Weather Reports


Display with metric or nautical units.
time (UTC)temp
F
wind
direction
speed
MPH
gust
MPH
rain 1hr
in
rain 24hr
in
rain mn
in
humidity
%
barometer
mb
20260903221539 63 95 1.0 6.0 0.00 0.00 0.00 91 1020.1
20260903220049 64 103 1.0 6.0 0.00 0.00 0.00 90 1020.3
20260903214538 64 84 0.0 3.0 0.00 0.00 0.00 92 1020.3
20260903213035 64 120 4.0 9.0 0.00 0.00 0.00 90 1020.4
20260903211535 64 142 1.0 7.0 0.00 0.00 0.00 88 1020.5
20260903210035 65 98 6.0 10.0 0.00 0.00 0.00 87 1020.4
20260903204534 66 146 5.0 11.0 0.00 0.00 0.00 84 1020.4
20260903203033 67 160 3.0 9.0 0.00 0.00 0.00 82 1020.5
20260903201533 67 143 2.0 9.0 0.00 0.00 0.00 84 1020.6
20260903200031 66 89 3.0 6.0 0.00 0.00 0.00 87 1020.6
20260903194530 66 86 4.0 6.0 0.00 0.00 0.00 89 1020.8
20260903193028 65 88 2.0 4.0 0.00 0.00 0.00 88 1021.0
20260903191527 65 107 2.0 8.0 0.00 0.00 0.00 86 1021.1
20260903190028 68 134 8.0 12.0 0.00 0.00 0.00 76 1021.1
20260903184526 68 101 3.0 11.0 0.00 0.00 0.00 78 1021.0
20260903183025 69 108 8.0 15.0 0.00 0.00 0.00 73 1021.1
20260903181524 69 126 6.0 11.0 0.00 0.00 0.00 74 1021.1
20260903180030 69 114 7.0 13.0 0.00 0.00 0.00 72 1021.2
20260903174523 70 107 7.0 14.0 0.00 0.00 0.00 71 1021.1
20260903173022 71 171 7.0 14.0 0.00 0.00 0.00 69 1021.3
20260903171528 70 143 5.0 14.0 0.00 0.00 0.00 72 1021.3
20260903170034 71 131 8.0 14.0 0.00 0.00 0.00 69 1021.3
20260903164522 71 112 3.0 13.0 0.00 0.00 0.00 70 1021.4
20260903163023 71 153 8.0 15.0 0.00 0.00 0.00 70 1021.5
20260903161516 70 161 6.0 14.0 0.00 0.00 0.00 71 1021.5
20260903160014 70 169 7.0 13.0 0.00 0.00 0.00 71 1021.8
20260903154513 69 115 9.0 13.0 0.00 0.00 0.00 72 1022.1
20260903153011 70 205 5.0 15.0 0.00 0.00 0.00 72 1022.1
20260903151514 70 209 7.0 13.0 0.00 0.00 0.00 68 1022.2
20260903150032 70 182 4.0 12.0 0.00 0.00 0.00 69 1022.2
20260903144516 69 197 4.0 10.0 0.00 0.00 0.00 69 1022.3
20260903143005 69 149 3.0 10.0 0.00 0.00 0.00 69 1022.4
20260903141503 69 207 6.0 10.0 0.00 0.00 0.00 70 1022.5
20260903140100 68 146 2.0 8.0 0.00 0.00 0.00 74 1022.6
20260903134614 66 186 3.0 8.0 0.00 0.00 0.00 77 1022.7
20260903133055 65 211 4.0 8.0 0.00 0.00 0.00 84 1022.7
20260903131550 64 71 0.0 2.0 0.00 0.00 0.00 89 1022.7
20260903130044 62 71 0.0 0.0 0.00 0.00 0.00 95 1022.8
20260903124550 60 105 0.0 0.0 0.00 0.00 0.00 97 1023.0
20260903123039 60 105 0.0 0.0 0.00 0.00 0.00 99 1023.0
20260903121535 58 267 0.0 0.0 0.00 0.00 0.00 100 1023.2
20260903120031 56 267 0.0 0.0 0.00 0.00 0.00 100 1023.1
20260903114527 53 267 0.0 0.0 0.00 0.00 0.00 100 1023.4
20260903113023 50 267 0.0 0.0 0.00 0.00 0.00 100 1023.3
20260903111523 50 267 0.0 0.0 0.00 0.00 0.00 100 1023.3
20260903110022 49 267 0.0 0.0 0.00 0.00 0.00 100 1023.3
20260903104523 48 267 0.0 0.0 0.00 0.00 0.00 100 1023.3
20260903103021 47 267 0.0 0.0 0.00 0.00 0.00 100 1023.2
20260903101520 47 267 0.0 0.0 0.00 0.00 0.00 100 1023.2
20260903100024 46 267 0.0 0.0 0.00 0.00 0.00 100 1023.1
20260903094519 46 267 0.0 0.0 0.00 0.00 0.00 100 1023.0
20260903093019 46 267 0.0 0.0 0.00 0.00 0.00 100 1023.0
20260903091519 45 267 0.0 0.0 0.00 0.00 0.00 100 1022.8
20260903090018 46 267 0.0 0.0 0.00 0.00 0.00 100 1022.9
20260903084527 46 267 0.0 0.0 0.00 0.00 0.00 100 1022.9
20260903083012 46 267 0.0 0.0 0.00 0.00 0.00 100 1023.1
20260903081510 46 267 0.0 0.0 0.00 0.00 0.00 100 1023.1
20260903080008 47 267 0.0 0.0 0.00 0.00 0.00 100 1023.2
20260903074507 47 267 0.0 0.0 0.00 0.00 0.00 100 1023.2
20260903073008 47 267 0.0 0.0 0.00 0.00 0.00 100 1023.2
20260903071505 47 267 0.0 0.0 0.00 0.00 0.00 100 1023.3
20260903070003 48 267 0.0 0.0 0.00 0.00 0.00 100 1023.3
20260903064502 48 267 0.0 0.0 0.00 0.00 0.00 100 1023.2
20260903063001 48 267 0.0 0.0 0.00 0.00 0.00 100 1023.1
20260903061601 48 267 0.0 0.0 0.00 0.00 0.00 100 1023.3
20260903060057 49 267 0.0 0.0 0.00 0.00 0.00 100 1023.4
20260903054557 49 267 0.0 3.0 0.00 0.00 0.00 100 1023.5
20260903053113 49 267 2.0 4.0 0.00 0.00 0.00 100 1023.4
20260903051553 48 267 0.0 0.0 0.00 0.00 0.00 99 1023.5
20260903044559 50 267 0.0 0.0 0.00 0.00 0.00 100 1023.6
20260903043106 49 267 0.0 0.0 0.00 0.00 0.00 100 1023.8
20260903041553 49 267 0.0 0.0 0.00 0.00 0.00 99 1023.6
20260903040052 49 267 0.0 1.0 0.00 0.00 0.00 99 1023.5
20260903034545 49 267 0.0 0.0 0.00 0.00 0.00 99 1023.6
20260903033042 50 267 0.0 3.0 0.00 0.00 0.00 99 1023.3
20260903031541 50 267 0.0 2.0 0.00 0.00 0.00 99 1023.3
20260903030039 51 267 1.0 3.0 0.00 0.00 0.00 99 1023.4
20260903024538 51 267 0.0 0.0 0.00 0.00 0.00 99 1023.4
20260903023038 51 267 0.0 2.0 0.00 0.00 0.00 99 1023.4
20260903021546 52 267 0.0 2.0 0.00 0.00 0.00 99 1023.5
20260903020036 52 267 0.0 0.0 0.00 0.00 0.00 99 1023.6
20260903014536 52 267 0.0 0.0 0.00 0.00 0.00 98 1023.4
20260903013035 52 267 0.0 0.0 0.00 0.00 0.00 98 1023.5
20260903011537 53 267 0.0 2.0 0.00 0.00 0.00 98 1023.5
20260903010035 53 267 0.0 0.0 0.00 0.00 0.00 97 1023.5
20260903004534 54 267 0.0 2.0 0.00 0.00 0.00 97 1023.6
20260903003034 54 267 0.0 3.0 0.00 0.00 0.00 97 1023.5
20260903001534 55 267 0.0 2.0 0.00 0.00 0.00 97 1023.4
20260903000035 56 267 0.0 0.0 0.00 0.00 0.00 96 1023.4
20260902234532 56 267 0.0 0.0 0.00 0.00 0.00 96 1023.3
20260902233032 57 267 0.0 1.0 0.00 0.00 0.00 95 1023.1
20260902231534 58 267 1.0 3.0 0.00 0.00 0.00 94 1023.1
20260902230031 59 267 0.0 3.0 0.00 0.00 0.00 93 1023.2
20260902224531 60 275 0.0 3.0 0.00 0.00 0.00 92 1023.0
20260902223031 62 275 0.0 0.0 0.00 0.00 0.00 91 1023.1